Year,Month,Day,Hour,Minute,Value (Times are PST for temperature in C)
2010,03,06,00,26,4.00
2010,03,06,00,27,4.00
2010,03,06,00,28,4.00
2010,03,06,00,29,4.00
2010,03,06,00,30,4.00
2010,03,06,00,31,4.00
2010,03,06,00,32,4.00
2010,03,06,00,33,4.00
2010,03,06,00,34,4.00
2010,03,06,00,35,4.00
2010,03,06,00,36,4.00
2010,03,06,00,37,4.00
2010,03,06,00,38,4.00
2010,03,06,00,39,4.00
2010,03,06,00,40,4.00
2010,03,06,00,41,4.00
2010,03,06,00,42,4.00
2010,03,06,00,43,4.00
2010,03,06,00,44,4.00
2010,03,06,00,45,4.00
2010,03,06,00,46,4.00
2010,03,06,00,47,4.00
2010,03,06,00,48,4.00
2010,03,06,00,49,4.00
2010,03,06,00,50,4.10
2010,03,06,00,51,4.10
2010,03,06,00,52,4.10
2010,03,06,00,53,4.10
2010,03,06,00,54,4.10
2010,03,06,00,55,4.20
2010,03,06,00,56,4.20
2010,03,06,00,57,4.20
2010,03,06,00,58,4.20
2010,03,06,00,59,4.30
2010,03,06,01,00,4.30
2010,03,06,01,01,4.30
2010,03,06,01,02,4.30
2010,03,06,01,03,4.30
2010,03,06,01,04,4.30
2010,03,06,01,05,4.30
2010,03,06,01,06,4.30
2010,03,06,01,07,4.30
2010,03,06,01,08,4.30
2010,03,06,01,09,4.20
2010,03,06,01,10,4.20
2010,03,06,01,11,4.20
2010,03,06,01,12,4.20
2010,03,06,01,13,4.20
2010,03,06,01,14,4.20
2010,03,06,01,15,4.20
2010,03,06,01,16,4.20
2010,03,06,01,17,4.20
2010,03,06,01,18,4.20
2010,03,06,01,19,4.20
2010,03,06,01,20,4.20
2010,03,06,01,21,4.20
2010,03,06,01,22,4.10
2010,03,06,01,23,4.10
2010,03,06,01,24,4.10
2010,03,06,01,25,4.10
2010,03,06,01,26,4.10
2010,03,06,01,27,4.10
2010,03,06,01,28,4.10
2010,03,06,01,29,4.10
2010,03,06,01,30,4.00
2010,03,06,01,31,4.00
2010,03,06,01,32,4.00
2010,03,06,01,33,4.00
2010,03,06,01,34,4.00
2010,03,06,01,35,3.90
2010,03,06,01,36,3.90
2010,03,06,01,37,3.90
2010,03,06,01,38,3.90
2010,03,06,01,39,3.90
2010,03,06,01,40,3.90
2010,03,06,01,41,3.90
2010,03,06,01,42,3.80
2010,03,06,01,43,3.80
2010,03,06,01,44,3.80
2010,03,06,01,45,3.80
2010,03,06,01,46,3.80
2010,03,06,01,47,3.80
2010,03,06,01,48,3.80
2010,03,06,01,49,3.80
2010,03,06,01,50,3.80
2010,03,06,01,51,3.90
2010,03,06,01,52,3.90
2010,03,06,01,53,3.90
2010,03,06,01,54,3.90
2010,03,06,01,55,3.90
2010,03,06,01,56,3.90
2010,03,06,01,57,3.90
2010,03,06,01,58,3.90
2010,03,06,01,59,3.90
2010,03,06,02,00,3.90
2010,03,06,02,01,3.90
2010,03,06,02,02,3.90
2010,03,06,02,03,3.90
2010,03,06,02,04,3.90
2010,03,06,02,05,3.90
2010,03,06,02,06,4.00
2010,03,06,02,07,4.00
2010,03,06,02,08,4.00
2010,03,06,02,09,4.10
2010,03,06,02,10,4.10
2010,03,06,02,11,4.10
2010,03,06,02,12,4.10
2010,03,06,02,13,4.10
2010,03,06,02,14,4.10
2010,03,06,02,15,4.10
2010,03,06,02,16,4.20
2010,03,06,02,17,4.20
2010,03,06,02,18,4.20
2010,03,06,02,19,4.20
2010,03,06,02,20,4.20
2010,03,06,02,21,4.20
2010,03,06,02,22,4.20
2010,03,06,02,23,4.20
2010,03,06,02,24,4.20
2010,03,06,02,25,4.10
2010,03,06,02,26,4.10
2010,03,06,02,27,4.10
2010,03,06,02,28,4.10
2010,03,06,02,29,4.10
2010,03,06,02,30,4.20
2010,03,06,02,31,4.10
2010,03,06,02,32,4.10
2010,03,06,02,33,4.10
2010,03,06,02,34,4.10
2010,03,06,02,35,4.10
2010,03,06,02,36,4.10
2010,03,06,02,37,4.10
2010,03,06,02,38,4.10
2010,03,06,02,39,4.10
2010,03,06,02,40,4.10
2010,03,06,02,41,4.10
2010,03,06,02,42,4.10
2010,03,06,02,43,4.10
2010,03,06,02,44,4.10
2010,03,06,02,45,4.10
2010,03,06,02,46,4.00
2010,03,06,02,47,4.00
2010,03,06,02,48,4.00
2010,03,06,02,49,4.00
2010,03,06,02,50,3.90
2010,03,06,02,51,3.90
2010,03,06,02,52,3.90
2010,03,06,02,53,3.90
2010,03,06,02,54,3.80
2010,03,06,02,55,3.80
2010,03,06,02,56,3.80
2010,03,06,02,57,3.80
2010,03,06,02,58,3.80
2010,03,06,02,59,3.70
2010,03,06,03,00,3.70
2010,03,06,03,01,3.70
2010,03,06,03,02,3.70
2010,03,06,03,03,3.70
2010,03,06,03,04,3.60
2010,03,06,03,05,3.60
2010,03,06,03,06,3.60
2010,03,06,03,07,3.60
2010,03,06,03,08,3.60
2010,03,06,03,09,3.50
2010,03,06,03,10,3.50
2010,03,06,03,11,3.50
2010,03,06,03,12,3.50
2010,03,06,03,13,3.50
2010,03,06,03,14,3.50
2010,03,06,03,15,3.50
2010,03,06,03,16,3.50
2010,03,06,03,17,3.40
2010,03,06,03,18,3.50
2010,03,06,03,19,3.50
2010,03,06,03,20,3.40
2010,03,06,03,21,3.40
2010,03,06,03,22,3.40
2010,03,06,03,23,3.40
2010,03,06,03,24,3.40
2010,03,06,03,25,3.40
2010,03,06,03,26,3.40
2010,03,06,03,27,3.40
2010,03,06,03,28,3.40
2010,03,06,03,29,3.40
2010,03,06,03,30,3.40
2010,03,06,03,31,3.40
2010,03,06,03,32,3.40
2010,03,06,03,33,3.40
2010,03,06,03,34,3.40
2010,03,06,03,35,3.40
2010,03,06,03,36,3.40
2010,03,06,03,37,3.40
2010,03,06,03,38,3.40
2010,03,06,03,39,3.40
2010,03,06,03,40,3.40
2010,03,06,03,41,3.40
2010,03,06,03,42,3.40
2010,03,06,03,43,3.40
2010,03,06,03,44,3.40
2010,03,06,03,45,3.40
2010,03,06,03,46,3.40
2010,03,06,03,47,3.50
2010,03,06,03,48,3.50
2010,03,06,03,49,3.60
2010,03,06,03,50,3.60
2010,03,06,03,51,3.60
2010,03,06,03,52,3.60
2010,03,06,03,53,3.60
2010,03,06,03,54,3.60
2010,03,06,03,55,3.60
2010,03,06,03,56,3.60
2010,03,06,03,57,3.60
2010,03,06,03,58,3.70
2010,03,06,03,59,3.70
2010,03,06,04,00,3.70
2010,03,06,04,01,3.70
2010,03,06,04,02,3.60
2010,03,06,04,03,3.60
2010,03,06,04,04,3.60
2010,03,06,04,05,3.60
2010,03,06,04,06,3.60
2010,03,06,04,07,3.60
2010,03,06,04,08,3.60
2010,03,06,04,09,3.50
2010,03,06,04,10,3.50
2010,03,06,04,11,3.50
2010,03,06,04,12,3.40
2010,03,06,04,13,3.40
2010,03,06,04,14,3.40
2010,03,06,04,15,3.40
2010,03,06,04,16,3.40
2010,03,06,04,17,3.40
2010,03,06,04,18,3.40
2010,03,06,04,19,3.40
2010,03,06,04,20,3.40
2010,03,06,04,21,3.40
2010,03,06,04,22,3.40
2010,03,06,04,23,3.40
2010,03,06,04,24,3.40
2010,03,06,04,25,3.40
2010,03,06,04,26,3.40
2010,03,06,04,27,3.40
2010,03,06,04,28,3.40
2010,03,06,04,29,3.40
2010,03,06,04,30,3.40
2010,03,06,04,31,3.40
2010,03,06,04,32,3.40
2010,03,06,04,33,3.40
2010,03,06,04,34,3.40
2010,03,06,04,35,3.50
2010,03,06,04,36,3.40
2010,03,06,04,37,3.40
2010,03,06,04,38,3.40
2010,03,06,04,39,3.40
2010,03,06,04,40,3.40
2010,03,06,04,41,3.40
2010,03,06,04,42,3.40
2010,03,06,04,43,3.40
2010,03,06,04,44,3.40
2010,03,06,04,45,3.40
2010,03,06,04,46,3.40
2010,03,06,04,47,3.30
2010,03,06,04,48,3.30
2010,03,06,04,49,3.30
2010,03,06,04,50,3.30
2010,03,06,04,51,3.30
2010,03,06,04,52,3.30
2010,03,06,04,53,3.30
2010,03,06,04,54,3.30
2010,03,06,04,55,3.20
2010,03,06,04,56,3.20
2010,03,06,04,57,3.20
2010,03,06,04,58,3.20
2010,03,06,04,59,3.20
2010,03,06,05,00,3.20
2010,03,06,05,01,3.10
2010,03,06,05,02,3.10
2010,03,06,05,03,3.10
2010,03,06,05,04,3.10
2010,03,06,05,05,3.10
2010,03,06,05,06,3.10
2010,03,06,05,07,3.10
2010,03,06,05,08,3.10
2010,03,06,05,09,3.10
2010,03,06,05,10,3.10
2010,03,06,05,11,3.10
2010,03,06,05,12,3.10
2010,03,06,05,13,3.10
2010,03,06,05,14,3.10
2010,03,06,05,15,3.10
2010,03,06,05,16,3.10
2010,03,06,05,17,3.10
2010,03,06,05,18,3.10
2010,03,06,05,19,3.10
2010,03,06,05,20,3.10
2010,03,06,05,21,3.10
2010,03,06,05,22,3.10
2010,03,06,05,23,3.10
2010,03,06,05,24,3.10
2010,03,06,05,25,3.10
2010,03,06,05,26,3.10
2010,03,06,05,27,3.10
2010,03,06,05,28,3.10
2010,03,06,05,29,3.10
2010,03,06,05,30,3.10
2010,03,06,05,31,3.10
2010,03,06,05,32,3.10
2010,03,06,05,33,3.10
2010,03,06,05,34,3.00
2010,03,06,05,35,3.00
2010,03,06,05,36,3.00
2010,03,06,05,37,3.00
2010,03,06,05,38,3.10
2010,03,06,05,39,3.00
2010,03,06,05,40,3.00
2010,03,06,05,41,3.00
2010,03,06,05,42,3.00
2010,03,06,05,43,3.00
2010,03,06,05,44,2.90
2010,03,06,05,45,2.90
2010,03,06,05,46,2.90
2010,03,06,05,47,2.90
2010,03,06,05,48,2.90
2010,03,06,05,49,2.90
2010,03,06,05,50,2.90
2010,03,06,05,51,2.90
2010,03,06,05,52,2.90
2010,03,06,05,53,2.90
2010,03,06,05,54,2.90
2010,03,06,05,55,2.90
2010,03,06,05,56,2.90
2010,03,06,05,57,2.90
2010,03,06,05,58,2.90
2010,03,06,05,59,2.90
2010,03,06,06,00,3.00
2010,03,06,06,01,3.00
2010,03,06,06,02,2.90
2010,03,06,06,03,3.00
2010,03,06,06,04,2.90
2010,03,06,06,05,3.00
2010,03,06,06,06,3.00
2010,03,06,06,07,2.90
2010,03,06,06,08,2.90
2010,03,06,06,09,2.90
2010,03,06,06,10,3.00
2010,03,06,06,11,2.90
2010,03,06,06,12,3.00
2010,03,06,06,13,3.00
2010,03,06,06,14,3.00
2010,03,06,06,15,3.00
2010,03,06,06,16,3.00
2010,03,06,06,17,3.00
2010,03,06,06,18,3.00
2010,03,06,06,19,3.00
2010,03,06,06,20,3.00
2010,03,06,06,21,3.00
2010,03,06,06,22,3.00
2010,03,06,06,23,3.00
2010,03,06,06,24,3.00
2010,03,06,06,25,3.10
2010,03,06,06,26,3.10
2010,03,06,06,27,3.10
2010,03,06,06,28,3.20
2010,03,06,06,29,3.20
2010,03,06,06,30,3.20
2010,03,06,06,31,3.20
2010,03,06,06,32,3.20
2010,03,06,06,33,3.20
2010,03,06,06,34,3.20
2010,03,06,06,35,3.20
2010,03,06,06,36,3.20
2010,03,06,06,37,3.30
2010,03,06,06,38,3.20
2010,03,06,06,39,3.20
2010,03,06,06,40,3.30
2010,03,06,06,41,3.30
2010,03,06,06,42,3.30
2010,03,06,06,43,3.30
2010,03,06,06,44,3.30
2010,03,06,06,45,3.20
2010,03,06,06,46,3.20
2010,03,06,06,47,3.20
2010,03,06,06,48,3.20
2010,03,06,06,49,3.20
2010,03,06,06,50,3.20
2010,03,06,06,51,3.20
2010,03,06,06,52,3.20
2010,03,06,06,53,3.20
2010,03,06,06,54,3.20
2010,03,06,06,55,3.20
2010,03,06,06,56,3.20
2010,03,06,06,57,3.20
2010,03,06,06,58,3.20
2010,03,06,06,59,3.20
2010,03,06,07,00,3.10
2010,03,06,07,01,3.10
2010,03,06,07,02,3.10
2010,03,06,07,03,3.10
2010,03,06,07,04,3.10
2010,03,06,07,05,3.10
2010,03,06,07,06,3.10
2010,03,06,07,07,3.10
2010,03,06,07,08,3.10
2010,03,06,07,09,3.00
2010,03,06,07,10,3.00
2010,03,06,07,11,3.00
2010,03,06,07,12,3.00
2010,03,06,07,13,3.00
2010,03,06,07,14,3.00
2010,03,06,07,15,3.00
2010,03,06,07,16,3.00
2010,03,06,07,17,2.90
2010,03,06,07,18,2.90
2010,03,06,07,19,2.90
2010,03,06,07,20,2.90
2010,03,06,07,21,2.90
2010,03,06,07,22,2.90
2010,03,06,07,23,2.90
2010,03,06,07,24,2.90
2010,03,06,07,25,2.90
2010,03,06,07,26,2.90
2010,03,06,07,27,2.90
2010,03,06,07,28,2.90
2010,03,06,07,29,2.90
2010,03,06,07,30,2.90
2010,03,06,07,31,2.90
2010,03,06,07,32,2.90
2010,03,06,07,33,2.90
2010,03,06,07,34,2.90
2010,03,06,07,35,2.90
2010,03,06,07,36,2.90
2010,03,06,07,37,2.90
2010,03,06,07,38,2.90
2010,03,06,07,39,2.90
2010,03,06,07,40,2.90
2010,03,06,07,41,2.90
2010,03,06,07,42,2.90
2010,03,06,07,43,2.90
2010,03,06,07,44,3.00
2010,03,06,07,45,3.00
2010,03,06,07,46,3.00
2010,03,06,07,47,3.00
2010,03,06,07,48,3.10
2010,03,06,07,49,3.10
2010,03,06,07,50,3.10
2010,03,06,07,51,3.10
2010,03,06,07,52,3.10
2010,03,06,07,53,3.10
2010,03,06,07,54,3.10
2010,03,06,07,55,3.10
2010,03,06,07,56,3.10
2010,03,06,07,57,3.10
2010,03,06,07,58,3.10
2010,03,06,07,59,3.10
2010,03,06,08,00,3.10
2010,03,06,08,01,3.10
2010,03,06,08,02,3.10
2010,03,06,08,03,3.20
2010,03,06,08,04,3.20
2010,03,06,08,05,3.20
2010,03,06,08,06,3.20
2010,03,06,08,07,3.20
2010,03,06,08,08,3.20
2010,03,06,08,09,3.30
2010,03,06,08,10,3.30
2010,03,06,08,11,3.30
2010,03,06,08,12,3.30
2010,03,06,08,13,3.40
2010,03,06,08,14,3.40
2010,03,06,08,15,3.40
2010,03,06,08,16,3.50
2010,03,06,08,17,3.50
2010,03,06,08,18,3.60
2010,03,06,08,19,3.60
2010,03,06,08,20,3.60
2010,03,06,08,21,3.70
2010,03,06,08,22,3.70
2010,03,06,08,23,3.70
2010,03,06,08,24,3.80
2010,03,06,08,25,3.80
2010,03,06,08,26,3.90
2010,03,06,08,27,3.90
2010,03,06,08,28,4.00
2010,03,06,08,29,4.10
2010,03,06,08,30,4.10
2010,03,06,08,31,4.20
2010,03,06,08,32,4.20
2010,03,06,08,33,4.30
2010,03,06,08,34,4.30
2010,03,06,08,35,4.40
2010,03,06,08,36,4.40
2010,03,06,08,37,4.40
2010,03,06,08,38,4.40
2010,03,06,08,39,4.50
2010,03,06,08,40,4.50
2010,03,06,08,41,4.50
2010,03,06,08,42,4.60
2010,03,06,08,43,4.60
2010,03,06,08,44,4.70
2010,03,06,08,45,4.70
2010,03,06,08,46,4.80
2010,03,06,08,47,4.80
2010,03,06,08,48,4.90
2010,03,06,08,49,4.90
2010,03,06,08,50,5.00
2010,03,06,08,51,5.10
2010,03,06,08,52,5.20
2010,03,06,08,53,5.20
2010,03,06,08,54,5.30
2010,03,06,08,55,5.40
2010,03,06,08,56,5.50
2010,03,06,08,57,5.50
2010,03,06,08,58,5.60
2010,03,06,08,59,5.60
2010,03,06,09,00,5.70
2010,03,06,09,01,5.80
2010,03,06,09,02,5.90
2010,03,06,09,03,5.90
2010,03,06,09,04,6.00
2010,03,06,09,05,6.10
2010,03,06,09,06,6.20
2010,03,06,09,07,6.30
2010,03,06,09,08,6.30
2010,03,06,09,09,6.40
2010,03,06,09,10,6.50
2010,03,06,09,11,6.60
2010,03,06,09,12,6.70
2010,03,06,09,13,6.70
2010,03,06,09,14,6.80
2010,03,06,09,15,6.90
2010,03,06,09,16,6.90
2010,03,06,09,17,7.00
2010,03,06,09,18,7.10
2010,03,06,09,19,7.20
2010,03,06,09,20,7.20
2010,03,06,09,21,7.30
2010,03,06,09,22,7.30
2010,03,06,09,23,7.30
2010,03,06,09,24,7.30
2010,03,06,09,25,7.40
2010,03,06,09,26,7.40
2010,03,06,09,27,7.40
2010,03,06,09,28,7.40
2010,03,06,09,29,7.40
2010,03,06,09,30,7.40
2010,03,06,09,31,7.50
2010,03,06,09,32,7.50
2010,03,06,09,33,7.60
2010,03,06,09,34,7.60
2010,03,06,09,35,7.60
2010,03,06,09,36,7.70
2010,03,06,09,37,7.70
2010,03,06,09,38,7.70
2010,03,06,09,39,7.80
2010,03,06,09,40,7.80
2010,03,06,09,41,7.80
2010,03,06,09,42,7.90
2010,03,06,09,43,7.90
2010,03,06,09,44,8.00
2010,03,06,09,45,8.00
2010,03,06,09,46,8.10
2010,03,06,09,47,8.10
2010,03,06,09,48,8.20
2010,03,06,09,49,8.20
2010,03,06,09,50,8.30
2010,03,06,09,51,8.40
2010,03,06,09,52,8.50
2010,03,06,09,53,8.60
2010,03,06,09,54,8.70
2010,03,06,09,55,8.80
2010,03,06,09,56,8.80
2010,03,06,09,57,8.90
2010,03,06,09,58,8.90
2010,03,06,09,59,9.00
2010,03,06,10,00,9.00
2010,03,06,10,01,9.10
2010,03,06,10,02,9.10
2010,03,06,10,03,9.20
2010,03,06,10,04,9.20
2010,03,06,10,05,9.20
2010,03,06,10,06,9.30
2010,03,06,10,07,9.40
2010,03,06,10,08,9.50
2010,03,06,10,09,9.50
2010,03,06,10,10,9.60
2010,03,06,10,11,9.70
2010,03,06,10,12,9.70
2010,03,06,10,13,9.80
2010,03,06,10,14,9.80
2010,03,06,10,15,9.80
2010,03,06,10,16,9.80
2010,03,06,10,17,9.80
2010,03,06,10,18,9.80
2010,03,06,10,19,9.80
2010,03,06,10,20,9.80
2010,03,06,10,21,9.80
2010,03,06,10,22,9.80
2010,03,06,10,23,9.80
2010,03,06,10,24,9.80
2010,03,06,10,25,9.80
2010,03,06,10,26,9.80
2010,03,06,10,27,9.80
2010,03,06,10,28,9.80
2010,03,06,10,29,9.80
2010,03,06,10,30,9.80
2010,03,06,10,31,9.80
2010,03,06,10,32,9.70
2010,03,06,10,33,9.70
2010,03,06,10,34,9.70
2010,03,06,10,35,9.70
2010,03,06,10,36,9.60
2010,03,06,10,37,9.50
2010,03,06,10,38,9.50
2010,03,06,10,39,9.40
2010,03,06,10,40,9.40
2010,03,06,10,41,9.40
2010,03,06,10,42,9.40
2010,03,06,10,43,9.30
2010,03,06,10,44,9.30
2010,03,06,10,45,9.30
2010,03,06,10,46,9.30
2010,03,06,10,47,9.30
2010,03,06,10,48,9.40
2010,03,06,10,49,9.40
2010,03,06,10,50,9.40
2010,03,06,10,51,9.40
2010,03,06,10,52,9.50
2010,03,06,10,53,9.50
2010,03,06,10,54,9.60
2010,03,06,10,55,9.60
2010,03,06,10,56,9.60
2010,03,06,10,57,9.60
2010,03,06,10,58,9.70
2010,03,06,10,59,9.70
2010,03,06,11,00,9.70
2010,03,06,11,01,9.70
2010,03,06,11,02,9.70
2010,03,06,11,03,9.70
2010,03,06,11,04,9.70
2010,03,06,11,05,9.70
2010,03,06,11,06,9.80
2010,03,06,11,07,9.80
2010,03,06,11,08,9.80
2010,03,06,11,09,9.80
2010,03,06,11,10,9.90
2010,03,06,11,11,9.90
2010,03,06,11,12,9.90
2010,03,06,11,13,9.90
2010,03,06,11,14,9.90
2010,03,06,11,15,9.90
2010,03,06,11,16,10.00
2010,03,06,11,17,10.00
2010,03,06,11,18,10.00
2010,03,06,11,19,10.10
2010,03,06,11,20,10.10
2010,03,06,11,21,10.20
2010,03,06,11,22,10.20
2010,03,06,11,23,10.30
2010,03,06,11,24,10.30
2010,03,06,11,25,10.30
2010,03,06,11,26,10.30
2010,03,06,11,27,10.30
2010,03,06,11,28,10.30
2010,03,06,11,29,10.30
2010,03,06,11,30,10.30
2010,03,06,11,31,10.30
2010,03,06,11,32,10.30
2010,03,06,11,33,10.30
2010,03,06,11,34,10.30
2010,03,06,11,35,10.30
2010,03,06,11,36,10.30
2010,03,06,11,37,10.30
2010,03,06,11,38,10.40
2010,03,06,11,39,10.40
2010,03,06,11,40,10.40
2010,03,06,11,41,10.50
2010,03,06,11,42,10.50
2010,03,06,11,43,10.60
2010,03,06,11,44,10.70
2010,03,06,11,45,10.70
2010,03,06,11,46,10.70
2010,03,06,11,47,10.70
2010,03,06,11,48,10.60
2010,03,06,11,49,10.50
2010,03,06,11,50,10.40
2010,03,06,11,51,10.40
2010,03,06,11,52,10.30
2010,03,06,11,53,10.30
2010,03,06,11,54,10.20
2010,03,06,11,55,10.20
2010,03,06,11,56,10.10
2010,03,06,11,57,10.10
2010,03,06,11,58,10.10
2010,03,06,11,59,10.10
2010,03,06,12,00,10.10
2010,03,06,12,01,10.10
2010,03,06,12,02,10.10
2010,03,06,12,03,10.10
2010,03,06,12,04,10.10
2010,03,06,12,05,10.10
2010,03,06,12,06,10.10
2010,03,06,12,07,10.10
2010,03,06,12,08,10.20
2010,03,06,12,09,10.20
2010,03,06,12,10,10.30
2010,03,06,12,11,10.30
2010,03,06,12,12,10.40
2010,03,06,12,13,10.50
2010,03,06,12,14,10.60
2010,03,06,12,15,10.60
2010,03,06,12,16,10.60
2010,03,06,12,17,10.60
2010,03,06,12,18,10.70
2010,03,06,12,19,10.70
2010,03,06,12,20,10.70
2010,03,06,12,21,10.70
2010,03,06,12,22,10.70
2010,03,06,12,23,10.70
2010,03,06,12,24,10.80
2010,03,06,12,25,10.80
2010,03,06,12,26,10.80
2010,03,06,12,27,10.80
2010,03,06,12,28,10.80
2010,03,06,12,29,10.80
2010,03,06,12,30,10.80
2010,03,06,12,31,10.80
2010,03,06,12,32,10.80
2010,03,06,12,33,10.80
2010,03,06,12,34,10.90
2010,03,06,12,35,10.90
2010,03,06,12,36,10.90
2010,03,06,12,37,10.90
2010,03,06,12,38,10.90
2010,03,06,12,39,11.00
2010,03,06,12,40,11.00
2010,03,06,12,41,11.00
2010,03,06,12,42,11.10
2010,03,06,12,43,11.10
2010,03,06,12,44,11.20
2010,03,06,12,45,11.20
2010,03,06,12,46,11.20
2010,03,06,12,47,11.20
2010,03,06,12,48,11.20
2010,03,06,12,49,11.20
2010,03,06,12,50,11.20
2010,03,06,12,51,11.20
2010,03,06,12,52,11.20
2010,03,06,12,53,11.10
2010,03,06,12,54,11.10
2010,03,06,12,55,11.10
2010,03,06,12,56,11.10
2010,03,06,12,57,11.10
2010,03,06,12,58,11.10
2010,03,06,12,59,11.10
2010,03,06,13,00,11.10
2010,03,06,13,01,11.10
2010,03,06,13,02,11.10
2010,03,06,13,03,11.10
2010,03,06,13,04,11.20
2010,03,06,13,05,11.20
2010,03,06,13,06,11.20
2010,03,06,13,07,11.20
2010,03,06,13,08,11.20
2010,03,06,13,09,11.20
2010,03,06,13,10,11.20
2010,03,06,13,11,11.20
2010,03,06,13,12,11.30
2010,03,06,13,13,11.30
2010,03,06,13,14,11.30
2010,03,06,13,15,11.30
2010,03,06,13,16,11.40
2010,03,06,13,17,11.40
2010,03,06,13,18,11.40
2010,03,06,13,19,11.40
2010,03,06,13,20,11.40
2010,03,06,13,21,11.30
2010,03,06,13,22,11.30
2010,03,06,13,23,11.30
2010,03,06,13,24,11.30
2010,03,06,13,25,11.20
2010,03,06,13,26,11.20
2010,03,06,13,27,11.20
2010,03,06,13,28,11.20
2010,03,06,13,29,11.10
2010,03,06,13,30,11.10
2010,03,06,13,31,11.10
2010,03,06,13,32,11.10
2010,03,06,13,33,11.10
2010,03,06,13,34,11.10
2010,03,06,13,35,11.20
2010,03,06,13,36,11.20
2010,03,06,13,37,11.30
2010,03,06,13,38,11.30
2010,03,06,13,39,11.40
2010,03,06,13,40,11.40
2010,03,06,13,41,11.50
2010,03,06,13,42,11.50
2010,03,06,13,43,11.60
2010,03,06,13,44,11.60
2010,03,06,13,45,11.70
2010,03,06,13,46,11.70
2010,03,06,13,47,11.80
2010,03,06,13,48,11.80
2010,03,06,13,49,11.80
2010,03,06,13,50,11.90
2010,03,06,13,51,11.90
2010,03,06,13,52,11.90
2010,03,06,13,53,12.00
2010,03,06,13,54,12.10
2010,03,06,13,55,12.10
2010,03,06,13,56,12.10
2010,03,06,13,57,12.10
2010,03,06,13,58,12.10
2010,03,06,13,59,12.00
2010,03,06,14,00,12.00
2010,03,06,14,01,11.90
2010,03,06,14,02,11.90
2010,03,06,14,03,11.90
2010,03,06,14,04,11.90
2010,03,06,14,05,11.90
2010,03,06,14,06,11.80
2010,03,06,14,07,11.80
2010,03,06,14,08,11.80
2010,03,06,14,09,11.80
2010,03,06,14,10,11.90
2010,03,06,14,11,12.00
2010,03,06,14,12,12.00
2010,03,06,14,13,12.10
2010,03,06,14,14,12.10
2010,03,06,14,15,12.00
2010,03,06,14,16,11.90
2010,03,06,14,17,11.80
2010,03,06,14,18,11.80
2010,03,06,14,19,11.70
2010,03,06,14,20,11.70
2010,03,06,14,21,11.60
2010,03,06,14,22,11.60
2010,03,06,14,23,11.60
2010,03,06,14,24,11.60
2010,03,06,14,25,11.60
2010,03,06,14,26,11.60
2010,03,06,14,27,11.50
2010,03,06,14,28,11.50
2010,03,06,14,29,11.40
2010,03,06,14,30,11.40
2010,03,06,14,31,11.40
2010,03,06,14,32,11.40
2010,03,06,14,33,11.40
2010,03,06,14,34,11.40
2010,03,06,14,35,11.40
2010,03,06,14,36,11.40
2010,03,06,14,37,11.40
2010,03,06,14,38,11.40
2010,03,06,14,39,11.50
2010,03,06,14,40,11.50
2010,03,06,14,41,11.60
2010,03,06,14,42,11.60
2010,03,06,14,43,11.60
2010,03,06,14,44,11.70
2010,03,06,14,45,11.70
2010,03,06,14,46,11.70
2010,03,06,14,47,11.80
2010,03,06,14,48,11.80
2010,03,06,14,49,11.80
2010,03,06,14,50,11.80
2010,03,06,14,51,11.80
2010,03,06,14,52,11.80
2010,03,06,14,53,11.90
2010,03,06,14,54,11.90
2010,03,06,14,55,12.00
2010,03,06,14,56,12.00
2010,03,06,14,57,12.00
2010,03,06,14,58,12.10
2010,03,06,14,59,12.00
2010,03,06,15,00,12.00
2010,03,06,15,01,12.00
2010,03,06,15,02,12.00
2010,03,06,15,03,12.00
2010,03,06,15,04,12.00
2010,03,06,15,05,11.90
2010,03,06,15,06,11.90
2010,03,06,15,07,11.90
2010,03,06,15,08,11.80
2010,03,06,15,09,11.80
2010,03,06,15,10,11.90
2010,03,06,15,11,11.90
2010,03,06,15,12,11.90
2010,03,06,15,13,11.90
2010,03,06,15,14,11.90
2010,03,06,15,15,12.00
2010,03,06,15,16,11.90
2010,03,06,15,17,11.90
2010,03,06,15,18,11.90
2010,03,06,15,19,11.90
2010,03,06,15,20,11.90
2010,03,06,15,21,11.80
2010,03,06,15,22,11.80
2010,03,06,15,23,11.80
2010,03,06,15,24,11.90
2010,03,06,15,25,11.90
2010,03,06,15,26,12.00
2010,03,06,15,27,12.00
2010,03,06,15,28,12.10
2010,03,06,15,29,12.10
2010,03,06,15,30,12.10
2010,03,06,15,31,12.10
2010,03,06,15,32,12.00
2010,03,06,15,33,12.00
2010,03,06,15,34,11.90
2010,03,06,15,35,11.90
2010,03,06,15,36,11.80
2010,03,06,15,37,11.80
2010,03,06,15,38,11.80
2010,03,06,15,39,11.80
2010,03,06,15,40,11.80
2010,03,06,15,41,11.80
2010,03,06,15,42,11.80
2010,03,06,15,43,11.80
2010,03,06,15,44,11.90
2010,03,06,15,45,11.90
2010,03,06,15,46,11.90
2010,03,06,15,47,11.90
2010,03,06,15,48,11.90
2010,03,06,15,49,11.80
2010,03,06,15,50,11.80
2010,03,06,15,51,11.80
2010,03,06,15,52,11.80
2010,03,06,15,53,11.80
2010,03,06,15,54,11.80
2010,03,06,15,55,11.70
2010,03,06,15,56,11.70
2010,03,06,15,57,11.60
2010,03,06,15,58,11.60
2010,03,06,15,59,11.60
2010,03,06,16,00,11.50
2010,03,06,16,01,11.50
2010,03,06,16,02,11.50
2010,03,06,16,03,11.50
2010,03,06,16,04,11.50
2010,03,06,16,05,11.50
2010,03,06,16,06,11.50
2010,03,06,16,07,11.60
2010,03,06,16,08,11.60
2010,03,06,16,09,11.70
2010,03,06,16,10,11.80
2010,03,06,16,11,11.80
2010,03,06,16,12,11.80
2010,03,06,16,13,11.90
2010,03,06,16,14,11.90
2010,03,06,16,15,11.90
2010,03,06,16,16,11.90
2010,03,06,16,17,11.90
2010,03,06,16,18,12.00
2010,03,06,16,19,12.00
2010,03,06,16,20,12.00
2010,03,06,16,21,12.00
2010,03,06,16,22,12.00
2010,03,06,16,23,12.00
2010,03,06,16,24,12.00
2010,03,06,16,25,11.90
2010,03,06,16,26,11.90
2010,03,06,16,27,11.80
2010,03,06,16,28,11.80
2010,03,06,16,29,11.80
2010,03,06,16,30,11.80
2010,03,06,16,31,11.80
2010,03,06,16,32,11.70
2010,03,06,16,33,11.70
2010,03,06,16,34,11.70
2010,03,06,16,35,11.70
2010,03,06,16,36,11.70
2010,03,06,16,37,11.70
2010,03,06,16,38,11.60
2010,03,06,16,39,11.60
2010,03,06,16,40,11.60
2010,03,06,16,41,11.60
2010,03,06,16,42,11.60
2010,03,06,16,43,11.60
2010,03,06,16,44,11.60
2010,03,06,16,45,11.60
2010,03,06,16,46,11.60
2010,03,06,16,47,11.60
2010,03,06,16,48,11.60
2010,03,06,16,49,11.50
2010,03,06,16,50,11.50
2010,03,06,16,51,11.50
2010,03,06,16,52,11.50
2010,03,06,16,53,11.50
2010,03,06,16,54,11.50
2010,03,06,16,55,11.50
2010,03,06,16,56,11.50
2010,03,06,16,57,11.60
2010,03,06,16,58,11.60
2010,03,06,16,59,11.50
2010,03,06,17,00,11.50
2010,03,06,17,01,11.50
2010,03,06,17,02,11.40
2010,03,06,17,03,11.40
2010,03,06,17,04,11.40
2010,03,06,17,05,11.30
2010,03,06,17,06,11.30
2010,03,06,17,07,11.30
2010,03,06,17,08,11.30
2010,03,06,17,09,11.30
2010,03,06,17,10,11.30
2010,03,06,17,11,11.30
2010,03,06,17,12,11.20
2010,03,06,17,13,11.20
2010,03,06,17,14,11.20
2010,03,06,17,15,11.10
2010,03,06,17,16,11.10
2010,03,06,17,17,11.00
2010,03,06,17,18,10.90
2010,03,06,17,19,10.90
2010,03,06,17,20,10.80
2010,03,06,17,21,10.80
2010,03,06,17,22,10.80
2010,03,06,17,23,10.70
2010,03,06,17,24,10.70
2010,03,06,17,25,10.70
2010,03,06,17,26,10.70
2010,03,06,17,27,10.70
2010,03,06,17,28,10.70
2010,03,06,17,29,10.70
2010,03,06,17,30,10.70
2010,03,06,17,31,10.70
2010,03,06,17,32,10.70
2010,03,06,17,33,10.70
2010,03,06,17,34,10.70
2010,03,06,17,35,10.70
2010,03,06,17,36,10.70
2010,03,06,17,37,10.70
2010,03,06,17,38,10.70
2010,03,06,17,39,10.70
2010,03,06,17,40,10.70
2010,03,06,17,41,10.60
2010,03,06,17,42,10.60
2010,03,06,17,43,10.60
2010,03,06,17,44,10.50
2010,03,06,17,45,10.50
2010,03,06,17,46,10.40
2010,03,06,17,47,10.30
2010,03,06,17,48,10.30
2010,03,06,17,49,10.20
2010,03,06,17,50,10.10
2010,03,06,17,51,10.00
2010,03,06,17,52,9.90
2010,03,06,17,53,9.80
2010,03,06,17,54,9.70
2010,03,06,17,55,9.70
2010,03,06,17,56,9.60
2010,03,06,17,57,9.50
2010,03,06,17,58,9.40
2010,03,06,17,59,9.30
2010,03,06,18,00,9.30
2010,03,06,18,01,9.20
2010,03,06,18,02,9.10
2010,03,06,18,03,9.10
2010,03,06,18,04,9.00
2010,03,06,18,05,9.00
2010,03,06,18,06,8.90
2010,03,06,18,07,8.80
2010,03,06,18,08,8.80
2010,03,06,18,09,8.70
2010,03,06,18,10,8.70
2010,03,06,18,11,8.60
2010,03,06,18,12,8.60
2010,03,06,18,13,8.50
2010,03,06,18,14,8.50